TimeCST,TemperatureF,Dew PointF,Humidity,Sea Level PressureIn,VisibilityMPH,Wind Direction,Wind SpeedMPH,Gust SpeedMPH,PrecipitationIn,Events,Conditions,WindDirDegrees,DateUTC
12:15 AM,30.2,26.6,86,29.70,7.0,WNW,24.2,31.1,N/A,,Overcast,290,2013-01-09 06:15:00
12:34 AM,30.2,26.6,86,29.71,10.0,West,28.8,32.2,N/A,,Mostly Cloudy,280,2013-01-09 06:34:00
12:55 AM,30.2,26.6,86,29.72,10.0,West,27.6,32.2,N/A,,Overcast,280,2013-01-09 06:55:00
1:15 AM,28.4,24.8,86,29.74,10.0,West,24.2,-,N/A,,Overcast,280,2013-01-09 07:15:00
1:34 AM,28.4,24.8,86,29.74,10.0,WNW,23.0,-,N/A,,Overcast,290,2013-01-09 07:34:00
1:55 AM,28.4,24.8,86,29.76,7.0,WNW,27.6,36.8,N/A,,Overcast,290,2013-01-09 07:55:00
2:15 AM,28.4,24.8,86,29.78,4.0,WNW,31.1,36.8,N/A,,Overcast,290,2013-01-09 08:15:00
2:34 AM,28.4,24.8,86,29.80,3.0,WNW,31.1,36.8,N/A,,Overcast,300,2013-01-09 08:34:00
2:55 AM,28.4,24.8,86,29.81,4.0,WNW,29.9,-,N/A,,Overcast,300,2013-01-09 08:55:00
3:15 AM,26.6,24.8,93,29.83,4.0,WNW,28.8,36.8,N/A,,Overcast,300,2013-01-09 09:15:00
3:34 AM,26.6,24.8,93,29.84,7.0,WNW,25.3,33.4,N/A,,Overcast,300,2013-01-09 09:34:00
3:55 AM,26.6,23.0,86,29.86,5.0,WNW,25.3,33.4,N/A,,Overcast,300,2013-01-09 09:55:00
4:14 AM,26.6,21.2,80,29.88,5.0,WNW,25.3,-,N/A,,Overcast,300,2013-01-09 10:14:00
4:34 AM,24.8,21.2,86,29.90,10.0,WNW,23.0,-,N/A,,Overcast,300,2013-01-09 10:34:00
4:55 AM,24.8,19.4,80,29.92,10.0,WNW,24.2,27.6,N/A,,Overcast,300,2013-01-09 10:55:00
5:14 AM,24.8,19.4,80,29.93,10.0,WNW,21.9,-,N/A,,Overcast,300,2013-01-09 11:14:00
5:34 AM,21.2,17.6,86,29.95,10.0,WNW,20.7,-,N/A,,Scattered Clouds,300,2013-01-09 11:34:00
5:55 AM,21.2,17.6,86,29.96,10.0,WNW,17.3,-,N/A,,Clear,300,2013-01-09 11:55:00
6:14 AM,21.2,15.8,80,29.98,10.0,WNW,16.1,-,N/A,,Clear,300,2013-01-09 12:14:00
6:34 AM,19.4,15.8,86,30.01,10.0,WNW,13.8,-,N/A,,Clear,290,2013-01-09 12:34:00
7:14 AM,19.4,14.0,80,30.05,10.0,WNW,12.7,-,N/A,,Clear,290,2013-01-09 13:14:00
7:34 AM,17.6,14.0,86,30.06,10.0,WNW,10.4,-,N/A,,Clear,290,2013-01-09 13:34:00
7:55 AM,19.4,15.8,86,30.07,10.0,WNW,12.7,-,N/A,,Clear,290,2013-01-09 13:55:00
8:14 AM,17.6,14.0,86,30.08,10.0,WNW,11.5,-,N/A,,Clear,300,2013-01-09 14:14:00
8:35 AM,17.6,12.2,79,30.09,10.0,WNW,12.7,-,N/A,,Clear,300,2013-01-09 14:35:00
8:55 AM,17.6,14.0,86,30.10,10.0,WNW,15.0,-,N/A,,Clear,300,2013-01-09 14:55:00
9:14 AM,19.4,15.8,86,30.12,10.0,WNW,13.8,-,N/A,,Clear,300,2013-01-09 15:14:00
9:35 AM,19.4,15.8,86,30.13,10.0,West,6.9,-,N/A,,Clear,280,2013-01-09 15:35:00
9:55 AM,19.4,15.8,86,30.14,10.0,West,4.6,-,N/A,,Clear,260,2013-01-09 15:55:00
10:14 AM,19.4,15.8,86,30.16,10.0,West,8.1,-,N/A,,Clear,270,2013-01-09 16:14:00
10:35 AM,21.2,15.8,80,30.16,10.0,WNW,11.5,-,N/A,,Clear,290,2013-01-09 16:35:00
10:55 AM,21.2,15.8,80,30.16,10.0,WNW,12.7,-,N/A,,Clear,290,2013-01-09 16:55:00
11:14 AM,23.0,17.6,80,30.16,10.0,WNW,12.7,-,N/A,,Clear,300,2013-01-09 17:14:00
11:35 AM,23.0,17.6,80,30.16,10.0,WNW,11.5,-,N/A,,Clear,300,2013-01-09 17:35:00
11:55 AM,24.8,17.6,74,30.16,10.0,NW,11.5,-,N/A,,Clear,310,2013-01-09 17:55:00
12:14 PM,24.8,17.6,74,30.15,10.0,NW,10.4,-,N/A,,Clear,310,2013-01-09 18:14:00
12:35 PM,24.8,17.6,74,30.14,10.0,WNW,9.2,-,N/A,,Clear,300,2013-01-09 18:35:00
12:55 PM,24.8,17.6,74,30.14,10.0,NW,9.2,-,N/A,,Clear,310,2013-01-09 18:55:00
1:14 PM,26.6,17.6,69,30.15,10.0,NW,6.9,-,N/A,,Clear,320,2013-01-09 19:14:00
1:35 PM,26.6,17.6,69,30.17,10.0,WNW,8.1,-,N/A,,Clear,300,2013-01-09 19:35:00
1:55 PM,26.6,17.6,69,30.17,10.0,WNW,5.8,-,N/A,,Scattered Clouds,290,2013-01-09 19:55:00
2:14 PM,26.6,17.6,69,30.19,10.0,West,4.6,-,N/A,,Mostly Cloudy,260,2013-01-09 20:14:00
2:35 PM,26.6,17.6,69,30.17,10.0,Calm,Calm,-,N/A,,Overcast,0,2013-01-09 20:35:00
2:55 PM,26.6,17.6,69,30.17,10.0,South,4.6,-,N/A,,Overcast,170,2013-01-09 20:55:00
3:14 PM,26.6,17.6,69,30.19,10.0,South,6.9,-,N/A,,Overcast,190,2013-01-09 21:14:00
3:35 PM,26.6,19.4,74,30.21,10.0,SSW,11.5,-,N/A,,Overcast,210,2013-01-09 21:35:00
3:55 PM,26.6,19.4,74,30.21,10.0,SSW,13.8,-,N/A,,Overcast,200,2013-01-09 21:55:00
4:14 PM,26.6,19.4,74,30.20,10.0,South,15.0,-,N/A,,Overcast,190,2013-01-09 22:14:00
4:35 PM,24.8,21.2,86,30.20,10.0,South,17.3,-,N/A,,Overcast,190,2013-01-09 22:35:00
4:54 PM,24.8,19.4,80,30.19,10.0,South,15.0,-,N/A,,Overcast,190,2013-01-09 22:54:00
5:14 PM,24.8,19.4,80,30.19,10.0,South,12.7,-,N/A,,Overcast,190,2013-01-09 23:14:00
5:35 PM,24.8,19.4,80,30.16,10.0,South,12.7,-,N/A,,Mostly Cloudy,170,2013-01-09 23:35:00
5:54 PM,23.0,19.4,86,30.15,10.0,South,12.7,-,N/A,,Clear,170,2013-01-09 23:54:00
6:14 PM,23.0,19.4,86,30.14,10.0,South,11.5,-,N/A,,Clear,170,2013-01-10 00:14:00
6:35 PM,23.0,19.4,86,30.14,10.0,South,11.5,-,N/A,,Clear,170,2013-01-10 00:35:00
6:54 PM,21.2,17.6,86,30.13,10.0,SSE,9.2,-,N/A,,Clear,160,2013-01-10 00:54:00
7:14 PM,21.2,17.6,86,30.12,10.0,SSE,11.5,-,N/A,,Clear,160,2013-01-10 01:14:00
7:35 PM,21.2,17.6,86,30.12,10.0,SSE,11.5,-,N/A,,Clear,160,2013-01-10 01:35:00
7:54 PM,19.4,17.6,93,30.11,10.0,SSE,9.2,-,N/A,,Clear,150,2013-01-10 01:54:00
8:14 PM,19.4,17.6,93,30.10,10.0,SSE,11.5,-,N/A,,Clear,150,2013-01-10 02:14:00
8:35 PM,21.2,17.6,86,30.08,10.0,SSE,13.8,-,N/A,,Clear,150,2013-01-10 02:35:00
8:54 PM,21.2,17.6,86,30.07,10.0,SSE,15.0,-,N/A,,Clear,160,2013-01-10 02:54:00
9:14 PM,24.8,17.6,74,30.06,10.0,SSE,19.6,-,N/A,,Clear,160,2013-01-10 03:14:00
9:35 PM,24.8,19.4,80,30.05,10.0,SSE,18.4,-,N/A,,Clear,160,2013-01-10 03:35:00
9:54 PM,26.6,19.4,74,30.05,10.0,South,17.3,-,N/A,,Clear,170,2013-01-10 03:54:00
10:14 PM,26.6,19.4,74,30.04,10.0,South,16.1,21.9,N/A,,Clear,170,2013-01-10 04:14:00
10:35 PM,26.6,17.6,69,30.05,10.0,South,13.8,-,N/A,,Clear,170,2013-01-10 04:35:00
10:54 PM,26.6,19.4,74,30.05,10.0,South,15.0,-,N/A,,Clear,170,2013-01-10 04:54:00
11:15 PM,26.6,17.6,69,30.05,10.0,South,11.5,-,N/A,,Clear,170,2013-01-10 05:15:00
11:35 PM,26.6,19.4,74,30.04,10.0,South,15.0,-,N/A,,Clear,170,2013-01-10 05:35:00
11:54 PM,26.6,19.4,74,30.03,10.0,South,15.0,-,N/A,,Clear,170,2013-01-10 05:54:00